Location: Zagreb
(45.8150°N, 15.9819°E)
Time: 18:51:10
(UTC+02:00)

Envisat - Visible Passes

Search period start: 04 August 2021 00:00
Search period end: 14 August 2021 00:00
Orbit: 764 x 766 km, 98.2° (Epoch: 03 August)

Date Brightness Start Highest point End Pass type
(mag) Time Alt. Az. Time Alt. Az. Time Alt. Az.
04 Aug 5.8 04:55:38 10° NE 04:58:24 14° E 05:01:09 10° ESE visible
07 Aug 6.1 04:45:12 10° ENE 04:46:45 11° E 04:48:17 10° ESE visible
09 Aug 5.7 05:08:46 10° NE 05:12:26 20° E 05:16:05 10° SE visible
12 Aug 5.8 04:57:47 10° NE 05:00:49 16° E 05:03:49 10° SE visible
